K3HW Weather Reports


Display with metric or nautical units.
time (UTC)temp
F
wind
direction
speed
MPH
gust
MPH
rain 1hr
in
rain 24hr
in
rain mn
in
humidity
%
barometer
mb
20260510093449 51 36 0.0 0.0 0.00 0.00 0.00 93 1015.1
20260510092945 51 34 0.0 0.0 0.00 0.00 0.00 93 1014.8
20260510092443 51 31 0.0 0.0 0.00 0.00 0.00 93 1014.9
20260510091942 51 35 0.0 0.0 0.00 0.00 0.00 93 1014.8
20260510091440 51 36 0.0 0.0 0.00 0.00 0.00 93 1014.8
20260510090936 51 41 0.0 0.0 0.00 0.00 0.00 93 1014.5
20260510090433 51 41 0.0 0.0 0.00 0.00 0.00 93 1014.6
20260510085928 51 42 0.0 0.0 0.00 0.00 0.00 93 1014.8
20260510085424 51 39 0.0 0.0 0.00 0.00 0.00 93 1015.1
20260510084919 51 36 0.0 0.0 0.00 0.00 0.00 93 1015.0
20260510084417 51 33 0.0 0.0 0.00 0.00 0.00 93 1015.0
20260510083913 51 33 0.0 0.0 0.00 0.00 0.00 93 1015.1
20260510083410 50 35 0.0 0.0 0.00 0.00 0.00 93 1014.9
20260510082905 50 33 0.0 0.0 0.00 0.00 0.00 93 1015.1
20260510082403 50 34 0.0 0.0 0.00 0.00 0.00 93 1015.2
20260510081901 50 13 0.0 0.0 0.00 0.00 0.00 93 1015.3
20260510081358 50 40 0.0 0.0 0.00 0.00 0.00 93 1014.9
20260510080855 50 33 0.0 0.0 0.00 0.00 0.00 93 1015.1
20260510080348 50 36 0.0 0.0 0.00 0.00 0.00 93 1014.9
20260510075846 51 40 0.0 0.0 0.00 0.00 0.00 93 1014.8
20260510075344 51 7 0.0 0.0 0.00 0.00 0.00 93 1014.9
20260510074840 50 37 0.0 0.0 0.00 0.00 0.00 93 1014.3
20260510074337 50 37 0.0 0.0 0.00 0.00 0.00 93 1014.4
20260510073833 50 36 0.0 0.0 0.00 0.00 0.00 93 1014.3
20260510073329 50 36 0.0 0.0 0.00 0.00 0.00 93 1014.5
20260510072825 50 35 0.0 0.0 0.00 0.00 0.00 93 1014.3
20260510072323 50 36 0.0 0.0 0.00 0.00 0.00 93 1014.3
20260510071819 50 40 0.0 0.0 0.00 0.00 0.00 93 1014.3
20260510071315 50 41 0.0 0.0 0.00 0.00 0.00 93 1014.1
20260510070814 50 41 0.0 0.0 0.00 0.00 0.00 93 1014.2
20260510070310 50 34 0.0 0.0 0.00 0.00 0.00 93 1014.2
20260510065810 50 37 0.0 0.0 0.00 0.00 0.00 93 1014.4
20260510065307 50 36 0.0 0.0 0.00 0.00 0.00 93 1014.4
20260510064804 49 26 0.0 0.0 0.00 0.00 0.00 93 1014.6
20260510064303 49 29 0.0 0.0 0.00 0.00 0.00 93 1014.3
20260510063803 49 33 0.0 0.0 0.00 0.00 0.00 93 1014.3
20260510063259 49 33 0.0 0.0 0.00 0.00 0.00 93 1014.3
20260510062756 49 34 0.0 0.0 0.00 0.00 0.00 93 1014.2
20260510062252 48 36 0.0 0.0 0.00 0.00 0.00 93 1014.2
20260510061747 49 40 0.0 0.0 0.00 0.00 0.00 93 1013.9
20260510061245 49 40 0.0 0.0 0.00 0.00 0.00 93 1014.0
20260510060741 49 40 0.0 0.0 0.00 0.00 0.00 93 1013.7
20260510060238 49 40 0.0 0.0 0.00 0.00 0.00 93 1013.7
20260510055734 49 40 0.0 0.0 0.00 0.00 0.00 93 1014.0
20260510055233 49 40 0.0 0.0 0.00 0.00 0.00 93 1014.2
20260510054732 49 40 0.0 0.0 0.00 0.00 0.00 93 1014.1
20260510054229 49 40 0.0 0.0 0.00 0.00 0.00 93 1014.2
20260510053728 49 40 0.0 0.0 0.00 0.00 0.00 93 1014.2
20260510053225 49 41 0.0 0.0 0.00 0.00 0.00 93 1014.2
20260510052720 50 41 0.0 0.0 0.00 0.00 0.00 93 1014.1
20260510052217 50 41 0.0 0.0 0.00 0.00 0.00 93 1014.2
20260510051712 50 41 0.0 0.0 0.00 0.00 0.00 93 1014.2
20260510051209 50 41 0.0 0.0 0.00 0.00 0.00 93 1014.4
20260510050707 50 42 0.0 0.0 0.00 0.00 0.00 93 1014.1
20260510050204 50 42 0.0 0.0 0.00 0.00 0.00 92 1014.4
20260510045700 50 42 0.0 0.0 0.00 0.00 0.00 92 1014.6
20260510045157 50 40 0.0 0.0 0.00 0.00 0.00 92 1014.5
20260510044653 50 40 0.0 0.0 0.00 0.00 0.00 92 1014.5
20260510044151 50 40 0.0 0.0 0.00 0.00 0.00 92 1014.6
20260510043646 50 42 0.0 0.0 0.00 0.00 0.00 92 1014.5
20260510043143 50 42 0.0 0.0 0.00 0.00 0.00 92 1014.6
20260510042641 49 40 0.0 0.0 0.00 0.00 0.00 92 1014.6
20260510042137 49 39 0.0 0.0 0.00 0.00 0.00 92 1014.6
20260510041634 49 41 0.0 0.0 0.00 0.00 0.00 92 1014.7
20260510041131 49 42 0.0 0.0 0.00 0.00 0.00 92 1014.6
20260510040628 49 42 0.0 0.0 0.00 0.00 0.00 92 1014.7
20260510040124 48 41 0.0 0.0 0.00 0.00 0.00 92 1014.8
20260510035620 48 41 0.0 0.0 0.00 0.19 0.19 92 1014.7
20260510035115 49 42 0.0 0.0 0.00 0.19 0.19 92 1014.5
20260510034613 49 41 0.0 0.0 0.00 0.19 0.19 92 1014.7
20260510034110 49 39 0.0 0.0 0.00 0.19 0.19 92 1014.7
20260510033606 49 39 0.0 0.0 0.00 0.19 0.19 92 1014.5
20260510033104 49 39 0.0 0.0 0.00 0.19 0.19 92 1014.6
20260510032600 49 39 0.0 0.0 0.00 0.19 0.19 91 1014.5
20260510032055 49 39 0.0 0.0 0.00 0.19 0.19 91 1014.5
20260510031550 50 39 0.0 0.0 0.00 0.19 0.19 91 1014.3
20260510031047 50 39 0.0 0.0 0.00 0.19 0.19 91 1014.2
20260510030542 50 39 0.0 0.0 0.00 0.19 0.19 91 1014.2
20260510030040 50 40 0.0 0.0 0.00 0.19 0.19 91 1014.2
20260510025536 50 40 0.0 0.0 0.00 0.19 0.19 91 1014.2
20260510025034 50 40 0.0 0.0 0.00 0.19 0.19 91 1014.2
20260510024531 50 40 0.0 0.0 0.00 0.19 0.19 91 1014.2
20260510024027 50 40 0.0 0.0 0.00 0.19 0.19 91 1014.3
20260510023523 50 40 0.0 0.0 0.00 0.19 0.19 91 1014.1
20260510023020 50 42 0.0 0.0 0.00 0.19 0.19 91 1014.2
20260510022519 51 42 0.0 0.0 0.00 0.19 0.19 91 1014.1
20260510022014 51 42 0.0 0.0 0.00 0.19 0.19 91 1014.3
20260510021511 51 42 0.0 0.0 0.00 0.19 0.19 91 1014.1
20260510021008 51 42 0.0 0.0 0.00 0.19 0.19 91 1014.1
20260510020502 51 42 0.0 0.0 0.00 0.19 0.19 91 1014.0
20260510015958 51 44 0.0 0.0 0.00 0.19 0.19 91 1014.0
20260510015454 52 44 0.0 0.0 0.00 0.19 0.19 91 1014.1
20260510014949 52 44 0.0 0.0 0.00 0.19 0.19 91 1013.9
20260510014448 52 44 0.0 0.0 0.00 0.19 0.19 91 1014.1
20260510013944 52 44 0.0 0.0 0.00 0.19 0.19 90 1014.0
20260510013438 53 39 0.0 0.0 0.00 0.19 0.19 90 1013.9
20260510012935 53 39 0.0 0.0 0.00 0.19 0.19 90 1014.0
20260510012429 53 39 0.0 0.0 0.00 0.19 0.19 90 1014.1
20260510011924 53 39 0.0 0.0 0.00 0.19 0.19 90 1014.2
20260510011420 53 39 0.0 0.0 0.00 0.19 0.19 90 1013.7
20260510010916 53 39 0.0 0.0 0.00 0.19 0.19 90 1013.6
20260510010413 53 39 0.0 0.0 0.00 0.19 0.19 89 1013.6
20260510005910 53 39 0.0 0.0 0.00 0.19 0.19 89 1013.9
20260510005406 53 40 0.0 0.0 0.00 0.19 0.19 89 1013.4
20260510004904 54 39 0.0 0.0 0.00 0.19 0.19 89 1013.4
20260510004401 54 39 0.0 0.0 0.00 0.19 0.19 89 1013.6
20260510003859 54 40 0.0 0.0 0.00 0.19 0.19 89 1013.7
20260510003355 54 39 0.0 0.0 0.00 0.19 0.19 88 1013.2
20260510002854 54 39 0.0 0.0 0.00 0.19 0.19 88 1013.4
20260510002352 54 39 0.0 0.0 0.00 0.19 0.19 87 1013.5
20260510001848 55 39 0.0 0.0 0.00 0.19 0.19 87 1013.5
20260510001346 55 39 0.0 0.0 0.00 0.19 0.19 87 1013.3
20260510000842 55 40 0.0 0.0 0.00 0.19 0.19 86 1013.1
20260510000341 56 36 0.0 0.0 0.00 0.19 0.19 86 1013.4
20260509235836 56 40 0.0 0.0 0.00 0.19 0.19 86 1013.3
20260509235333 57 40 0.0 0.0 0.00 0.19 0.19 85 1013.4
20260509234829 57 42 0.0 0.0 0.00 0.19 0.19 85 1013.2
20260509234326 57 41 0.0 0.0 0.00 0.19 0.19 85 1013.4
20260509233824 57 39 0.0 0.0 0.00 0.19 0.19 85 1013.4
20260509233321 57 46 0.0 0.0 0.00 0.19 0.19 84 1013.3
20260509232817 57 39 0.0 0.0 0.00 0.19 0.19 85 1013.5
20260509232315 57 41 0.0 0.0 0.00 0.19 0.19 85 1013.5
20260509231811 57 42 0.0 0.0 0.00 0.19 0.19 85 1013.4
20260509231308 57 41 0.0 0.0 0.00 0.19 0.19 84 1013.3
20260509230806 57 45 0.0 0.0 0.00 0.19 0.19 84 1013.3
20260509230303 58 39 0.0 0.0 0.00 0.19 0.19 83 1013.4
20260509225803 58 53 0.0 0.0 0.00 0.19 0.19 83 1013.3
20260509225300 59 43 0.0 0.0 0.00 0.19 0.19 82 1013.2
20260509224756 59 49 0.0 0.0 0.00 0.19 0.19 81 1013.3
20260509224253 59 53 0.0 0.0 0.00 0.19 0.19 80 1013.2
20260509223749 59 39 0.0 0.0 0.00 0.19 0.19 80 1013.2
20260509223246 59 49 0.0 0.0 0.00 0.19 0.19 82 1013.2
20260509222743 59 39 0.0 0.0 0.00 0.19 0.19 83 1013.4
20260509222239 58 36 0.0 0.0 0.00 0.19 0.19 83 1013.3
20260509221734 59 41 0.0 0.0 0.00 0.19 0.19 83 1013.3
20260509221231 59 41 0.0 0.0 0.00 0.19 0.19 82 1013.2
20260509220727 59 74 0.0 0.0 0.00 0.19 0.19 82 1013.0
20260509220224 59 43 0.0 0.0 0.00 0.19 0.19 83 1013.1
20260509215719 59 37 0.0 0.0 0.00 0.19 0.19 82 1013.1
20260509215216 59 42 0.0 0.0 0.00 0.19 0.19 82 1013.2
20260509214713 59 46 0.0 0.0 0.00 0.19 0.19 82 1013.2
20260509214210 60 41 0.0 0.0 0.00 0.19 0.19 81 1013.3
20260509213707 59 40 0.0 0.0 0.00 0.19 0.19 79 1013.1
20260509213202 59 30 0.0 0.0 0.00 0.19 0.19 81 1013.2
20260509212700 58 14 0.0 0.0 0.00 0.19 0.19 82 1013.1
20260509212157 58 37 0.0 0.0 0.00 0.19 0.19 83 1013.2
20260509211652 58 34 0.0 0.0 0.00 0.19 0.19 83 1013.4
20260509211149 58 33 0.0 0.0 0.00 0.19 0.19 83 1013.3
20260509210647 58 34 0.0 0.0 0.00 0.19 0.19 82 1013.3
20260509210144 58 35 0.0 0.0 0.00 0.19 0.19 82 1013.3
20260509205639 59 31 0.0 0.0 0.00 0.19 0.19 84 1013.4
20260509205138 58 34 0.0 0.0 0.00 0.19 0.19 84 1013.3
20260509204635 57 24 0.0 0.0 0.00 0.19 0.19 85 1013.3
20260509204131 57 37 0.0 0.0 0.00 0.19 0.19 87 1013.3
20260509203627 57 37 0.0 0.0 0.00 0.19 0.19 88 1013.2
20260509203126 57 41 0.0 0.0 0.00 0.19 0.19 88 1013.5
20260509202626 56 39 0.0 0.0 0.00 0.19 0.19 88 1013.4
20260509202121 56 40 0.0 0.0 0.00 0.19 0.19 88 1013.3
20260509201616 56 55 0.0 0.0 0.00 0.19 0.19 88 1013.4
20260509201114 55 48 0.0 0.0 0.00 0.19 0.19 89 1013.4
20260509200615 56 38 0.0 0.0 0.00 0.19 0.19 89 1013.3
20260509200110 56 40 0.0 0.0 0.00 0.19 0.19 89 1013.4
20260509195607 56 37 0.0 0.0 0.05 0.19 0.19 89 1013.5
20260509195101 55 36 0.0 0.0 0.05 0.19 0.19 89 1013.9
20260509194601 55 33 0.0 0.0 0.07 0.18 0.18 89 1013.9
20260509194059 55 40 0.0 0.0 0.07 0.18 0.18 89 1014.1
20260509193554 55 36 0.0 0.0 0.00 0.17 0.17 89 1014.0
20260509193050 56 34 0.0 0.0 0.00 0.17 0.17 89 1014.2
20260509192547 56 34 0.0 0.0 0.05 0.17 0.17 89 1014.1
20260509192043 56 37 0.0 0.0 0.05 0.17 0.17 89 1014.4
20260509191542 56 38 0.0 0.0 0.07 0.16 0.16 89 1014.4
20260509191039 56 24 0.0 0.0 0.07 0.16 0.16 89 1014.4
20260509190536 56 34 0.0 0.0 0.00 0.15 0.15 89 1014.5
20260509190034 56 33 0.0 0.0 0.05 0.15 0.15 89 1014.8
20260509185531 56 27 0.0 0.0 0.05 0.15 0.15 89 1014.8
20260509185027 56 26 0.0 0.0 0.00 0.14 0.14 89 1014.7
20260509184525 56 356 0.0 0.0 0.00 0.14 0.14 89 1014.9
20260509184021 56 29 0.0 0.0 0.00 0.14 0.14 89 1014.8
20260509183517 56 24 0.0 0.0 0.00 0.14 0.14 89 1014.9
20260509183013 56 356 0.0 0.0 0.07 0.14 0.14 89 1014.8
20260509182509 56 32 0.0 0.0 0.12 0.14 0.14 89 1014.9
20260509182006 56 29 0.0 0.0 0.05 0.13 0.13 89 1015.0
20260509181505 56 2 0.0 0.0 0.07 0.12 0.12 89 1015.0
20260509181002 56 28 0.0 0.0 0.14 0.12 0.12 89 1015.1
20260509180457 56 34 0.0 0.0 0.07 0.11 0.11 89 1015.1
20260509175954 56 13 0.0 0.0 0.07 0.11 0.11 89 1015.2
20260509175450 56 26 0.0 0.0 0.05 0.10 0.10 88 1015.1
20260509174947 56 37 0.0 0.0 0.05 0.10 0.10 88 1015.3
20260509174444 56 32 0.0 0.0 0.12 0.09 0.09 88 1014.9
20260509173939 57 343 0.0 0.0 0.19 0.09 0.09 88 1015.1
20260509173439 57 35 0.0 0.0 0.12 0.08 0.08 87 1014.8
20260509172935 57 35 0.0 0.0 0.12 0.07 0.07 87 1014.9
20260509172433 57 22 0.0 0.0 0.00 0.05 0.05 86 1014.8
20260509171928 57 29 0.0 0.0 0.07 0.05 0.05 86 1014.8
20260509171424 57 25 0.0 0.0 0.07 0.05 0.05 85 1014.7
20260509170921 57 33 0.0 0.0 0.05 0.04 0.04 85 1014.4
20260509170416 57 36 0.0 0.0 0.05 0.04 0.04 85 1014.6
20260509165913 57 28 0.0 0.0 0.00 0.03 0.03 84 1014.8
20260509165406 57 35 0.0 0.0 0.07 0.03 0.03 83 1014.9
20260509164902 58 24 0.0 0.0 0.07 0.03 0.03 83 1014.7
20260509164359 57 31 0.0 0.0 0.00 0.02 0.02 82 1014.9
20260509163855 58 31 0.0 0.0 0.05 0.02 0.02 82 1015.1
20260509163352 58 8 0.0 0.0 0.05 0.02 0.02 83 1015.0
20260509162851 58 354 0.0 0.0 0.07 0.01 0.01 81 1014.9
20260509162350 59 27 0.0 0.0 0.07 0.01 0.01 80 1014.9
20260509161846 59 24 0.0 0.0 0.00 0.00 0.00 78 1015.1
20260509161342 60 173 0.0 0.0 0.00 0.00 0.00 79 1015.3
20260509160838 60 45 0.0 0.0 0.00 0.00 0.00 77 1015.5
20260509160334 60 35 0.0 0.0 0.00 0.00 0.00 76 1015.3
20260509155829 60 40 0.0 0.0 0.00 0.00 0.00 74 1015.3
20260509155326 60 31 0.0 0.0 0.00 0.00 0.00 73 1015.3
20260509154822 60 310 0.0 0.0 0.00 0.00 0.00 72 1015.4
20260509154319 61 8 0.0 0.0 0.00 0.00 0.00 71 1015.7
20260509153816 61 357 0.0 0.0 0.00 0.00 0.00 71 1015.8
20260509153313 62 9 0.0 0.0 0.00 0.00 0.00 70 1015.4
20260509152809 62 40 0.0 0.0 0.00 0.00 0.00 70 1015.2
20260509152306 62 40 0.0 0.0 0.00 0.00 0.00 70 1015.3
20260509151803 62 25 0.0 0.0 0.00 0.00 0.00 70 1015.5
20260509151259 62 56 0.0 0.0 0.00 0.00 0.00 67 1015.5
20260509150758 62 82 0.0 0.0 0.00 0.00 0.00 68 1015.3
20260509150255 62 318 0.0 0.0 0.00 0.00 0.00 67 1015.5
20260509145752 62 32 0.0 0.0 0.00 0.00 0.00 69 1015.2
20260509145251 62 227 0.0 0.0 0.00 0.00 0.00 70 1015.3
20260509144748 61 47 0.0 0.0 0.00 0.00 0.00 69 1015.4
20260509144245 61 50 0.0 0.0 0.00 0.00 0.00 70 1015.3
20260509143742 61 342 0.0 0.0 0.00 0.00 0.00 69 1015.2
20260509143240 61 50 0.0 0.0 0.00 0.00 0.00 69 1015.2
20260509142736 61 359 0.0 0.0 0.00 0.00 0.00 68 1015.4
20260509142232 61 39 0.0 0.0 0.00 0.00 0.00 71 1015.3
20260509141728 60 356 0.0 0.0 0.00 0.00 0.00 68 1015.1
20260509141225 60 35 0.0 0.0 0.00 0.00 0.00 71 1015.0
20260509140722 60 74 0.0 0.0 0.00 0.00 0.00 73 1015.1
20260509140222 60 350 0.0 0.0 0.00 0.00 0.00 72 1015.1
20260509135716 60 44 0.0 0.0 0.00 0.00 0.00 72 1015.0
20260509135214 60 13 0.0 0.0 0.00 0.00 0.00 73 1015.1
20260509134711 60 71 0.0 0.0 0.00 0.00 0.00 72 1015.0
20260509134208 59 54 0.0 0.0 0.00 0.00 0.00 73 1014.9
20260509133705 59 36 0.0 0.0 0.00 0.00 0.00 74 1015.1
20260509133202 59 42 0.0 0.0 0.00 0.00 0.00 74 1015.0
20260509132700 59 49 0.0 0.0 0.00 0.00 0.00 73 1014.9
20260509132159 59 40 0.0 0.0 0.00 0.00 0.00 74 1014.9
20260509131654 59 53 0.0 0.0 0.00 0.00 0.00 73 1015.1
20260509131152 59 57 0.0 0.0 0.00 0.00 0.00 74 1014.9
20260509130647 59 37 0.0 0.0 0.00 0.00 0.00 74 1014.9
20260509130144 58 35 0.0 0.0 0.00 0.00 0.00 75 1015.1
20260509125640 58 41 0.0 0.0 0.00 0.00 0.00 75 1015.1
20260509125137 57 41 0.0 0.0 0.00 0.00 0.00 75 1015.1
20260509124634 57 38 0.0 0.0 0.00 0.00 0.00 75 1015.0
20260509124131 57 37 0.0 0.0 0.00 0.00 0.00 75 1015.0
20260509123629 57 40 0.0 0.0 0.00 0.00 0.00 75 1015.2
20260509123125 56 40 0.0 0.0 0.00 0.00 0.00 75 1015.0
20260509122621 56 37 0.0 0.0 0.00 0.00 0.00 76 1015.1
20260509122119 55 38 0.0 0.0 0.00 0.00 0.00 76 1015.2
20260509121615 55 36 0.0 0.0 0.00 0.00 0.00 76 1015.1
20260509121113 55 36 0.0 0.0 0.00 0.00 0.00 76 1015.1
20260509120611 55 39 0.0 0.0 0.00 0.00 0.00 76 1015.2
20260509120109 55 39 0.0 0.0 0.00 0.00 0.00 76 1015.1
20260509115606 54 37 0.0 0.0 0.00 0.00 0.00 77 1015.0
20260509115103 54 34 0.0 0.0 0.00 0.00 0.00 77 1015.2
20260509114601 54 37 0.0 0.0 0.00 0.00 0.00 77 1015.1
20260509114100 54 36 0.0 0.0 0.00 0.00 0.00 78 1015.2
20260509113558 54 36 0.0 0.0 0.00 0.00 0.00 78 1015.2
20260509113055 54 41 0.0 0.0 0.00 0.00 0.00 77 1014.9
20260509112551 53 39 0.0 0.0 0.00 0.00 0.00 78 1015.1
20260509112048 54 38 0.0 0.0 0.00 0.00 0.00 78 1014.9
20260509111546 54 38 0.0 0.0 0.00 0.00 0.00 77 1015.0
20260509111043 54 40 0.0 0.0 0.00 0.00 0.00 77 1015.0
20260509110540 54 41 0.0 0.0 0.00 0.00 0.00 77 1015.0
20260509110037 54 40 0.0 0.0 0.00 0.00 0.00 77 1015.0
20260509105535 53 39 0.0 0.0 0.00 0.00 0.00 77 1015.0
20260509105032 53 39 0.0 0.0 0.00 0.00 0.00 78 1014.9
20260509104529 53 40 0.0 0.0 0.00 0.00 0.00 77 1015.1
20260509104026 53 40 0.0 0.0 0.00 0.00 0.00 77 1015.1
20260509103523 53 40 0.0 0.0 0.00 0.00 0.00 77 1014.9
20260509103021 53 40 0.0 0.0 0.00 0.00 0.00 78 1015.0
20260509102518 53 37 0.0 0.0 0.00 0.00 0.00 79 1014.7
20260509102015 53 39 0.0 0.0 0.00 0.00 0.00 78 1015.1
20260509101511 53 42 0.0 0.0 0.00 0.00 0.00 77 1014.7
20260509101009 53 39 0.0 0.0 0.00 0.00 0.00 78 1014.6
20260509100506 53 39 0.0 0.0 0.00 0.00 0.00 79 1014.8
20260509100003 53 38 0.0 0.0 0.00 0.00 0.00 79 1014.6
20260509095459 53 38 0.0 0.0 0.00 0.00 0.00 77 1014.6
20260509094956 53 40 0.0 0.0 0.00 0.00 0.00 78 1014.7
20260509094453 53 37 0.0 0.0 0.00 0.00 0.00 78 1014.8
20260509093950 53 29 0.0 0.0 0.00 0.00 0.00 77 1014.8